sat.trackr.live / text

‹ back to catalog

STARLINK-31789

NORAD 59644 · 2024-082P

PAYLOAD ACTIVE UNKNOWN

§ Identity

Operator
Country
US
Launch date
2024-05-03
Launch site
AFETR
Launch vehicle
Mass (kg)
RCS (m²)

Purposes: comms

External: N2YO · Heavens-Above · Gunter

§ Orbital elements

Epoch: 2026-05-25T03:03:45.492768Z

Period
94.27 min
Inclination
43.0003°
Eccentricity
0.0001531
Mean motion
15.27595355 rev/d
Perigee alt
482.0 km
Apogee alt
484.1 km
Semi-major
6,861.1 km
B*
5.1920e-4
RAAN
67.9936°
Arg perigee
266.4946°
Mean anomaly
93.5730°
Rev number
11,670

§ Raw data

STARLINK-317891 59644U 24082P   26145.12760987  .00014059  00000+0  51920-3 0  99902 59644  43.0003  67.9936 0001531 266.4946  93.5730 15.27595355116706

JSON: /api/v1/satellites/59644 · /tle

For live sub-satellite position, see the globe view (requires WebGL).

§ Visibility from observer

Set your observer location to see the next 7 days of passes ≥ 10°. The values pass through the URL so the page stays shareable.

No JS? Fill the form by hand. The geolocation button needs JavaScript.